Radiation Dose at Monitoring Post of Fukushima Daini Nuclear Power Station
Date,Time,MP-1(microSv/h),MP-2(microSv/h),MP-3(microSv/h),MP-4(microSv/h),MP-5(microSv/h),MP-6(microSv/h),MP-7(microSv/h),Wind Direction,Wind Velocity(m/s),Rain
2019/02/01,00:00,0.215,0.196,0.320,0.297,0.279,0.159,0.095,north-northwest,5.3,No
2019/02/01,00:10,0.214,0.196,0.320,0.298,0.277,0.160,0.095,north-northwest,4.3,No
2019/02/01,00:20,0.214,0.195,0.320,0.296,0.278,0.158,0.096,north-northwest,5.4,No
2019/02/01,00:30,0.214,0.196,0.319,0.298,0.279,0.158,0.096,north-northwest,6.3,No
2019/02/01,00:40,0.214,0.197,0.319,0.297,0.278,0.158,0.096,northwest,4.8,No
2019/02/01,00:50,0.214,0.196,0.320,0.299,0.278,0.158,0.096,north-northwest,6.0,No
2019/02/01,01:00,0.213,0.197,0.319,0.297,0.277,0.158,0.095,northwest,4.8,No
2019/02/01,01:10,0.213,0.195,0.319,0.298,0.279,0.158,0.096,north-northwest,6.1,No
2019/02/01,01:20,0.215,0.195,0.319,0.298,0.279,0.158,0.096,northwest,4.9,No
2019/02/01,01:30,0.214,0.197,0.319,0.298,0.279,0.159,0.094,northwest,4.0,No
2019/02/01,01:40,0.214,0.196,0.319,0.298,0.279,0.159,0.096,northwest,3.6,No
2019/02/01,01:50,0.213,0.195,0.320,0.298,0.279,0.159,0.096,northwest,3.7,No
2019/02/01,02:00,0.214,0.196,0.320,0.298,0.279,0.159,0.095,north-northwest,4.6,No
2019/02/01,02:10,0.215,0.195,0.319,0.297,0.276,0.159,0.095,northwest,4.4,No
2019/02/01,02:20,0.214,0.196,0.319,0.296,0.277,0.159,0.096,northwest,4.5,No
2019/02/01,02:30,0.213,0.195,0.320,0.297,0.278,0.158,0.096,north-northwest,4.0,No
2019/02/01,02:40,0.215,0.196,0.319,0.298,0.278,0.158,0.096,northwest,5.6,No
2019/02/01,02:50,0.213,0.196,0.319,0.299,0.278,0.157,0.094,west-northwest,6.1,No
2019/02/01,03:00,0.214,0.196,0.318,0.298,0.278,0.158,0.096,west-northwest,6.1,No
2019/02/01,03:10,0.215,0.196,0.320,0.298,0.277,0.158,0.095,west-northwest,6.2,No
2019/02/01,03:20,0.215,0.197,0.320,0.297,0.277,0.158,0.095,west-northwest,5.5,No
2019/02/01,03:30,0.213,0.195,0.320,0.297,0.278,0.159,0.095,northwest,5.0,No
2019/02/01,03:40,0.215,0.196,0.319,0.298,0.278,0.158,0.095,northwest,3.7,No
2019/02/01,03:50,0.214,0.196,0.320,0.297,0.277,0.158,0.095,northwest,3.0,No
2019/02/01,04:00,0.213,0.196,0.319,0.298,0.277,0.158,0.095,northwest,2.5,No
2019/02/01,04:10,0.214,0.195,0.318,0.296,0.278,0.158,0.096,north-northwest,2.0,No
2019/02/01,04:20,0.214,0.196,0.319,0.298,0.279,0.158,0.096,north,3.0,No
2019/02/01,04:30,0.214,0.195,0.319,0.298,0.277,0.158,0.095,north,2.7,No
2019/02/01,04:40,0.214,0.196,0.318,0.297,0.277,0.158,0.094,north,3.7,No
2019/02/01,04:50,0.214,0.196,0.318,0.298,0.277,0.159,0.095,north,3.5,No
2019/02/01,05:00,0.214,0.195,0.319,0.297,0.279,0.159,0.096,north,3.1,No
2019/02/01,05:10,0.214,0.195,0.319,0.298,0.278,0.159,0.095,northwest,1.5,No
2019/02/01,05:20,0.214,0.196,0.319,0.298,0.278,0.158,0.095,west,1.1,No
2019/02/01,05:30,0.214,0.196,0.319,0.298,0.277,0.159,0.095,-,CALM,No
2019/02/01,05:40,0.214,0.196,0.318,0.297,0.278,0.158,0.095,-,CALM,No
2019/02/01,05:50,0.215,0.195,0.320,0.296,0.278,0.159,0.095,north-northwest,1.4,No
2019/02/01,06:00,0.213,0.196,0.318,0.298,0.278,0.159,0.095,northwest,2.4,No
2019/02/01,06:10,0.214,0.195,0.319,0.297,0.277,0.159,0.095,northwest,3.0,No
2019/02/01,06:20,0.214,0.196,0.321,0.298,0.278,0.159,0.095,northwest,3.1,No
2019/02/01,06:30,0.213,0.196,0.318,0.296,0.276,0.158,0.096,northwest,4.5,No
2019/02/01,06:40,0.213,0.196,0.318,0.298,0.278,0.158,0.095,north-northwest,4.1,No
2019/02/01,06:50,0.214,0.195,0.318,0.296,0.277,0.159,0.096,north-northwest,3.1,No
2019/02/01,07:00,0.214,0.195,0.320,0.297,0.278,0.158,0.095,north-northwest,3.3,No
2019/02/01,07:10,0.213,0.196,0.321,0.296,0.278,0.158,0.096,north-northwest,2.4,No
2019/02/01,07:20,0.215,0.195,0.320,0.298,0.279,0.159,0.095,northwest,2.4,No
2019/02/01,07:30,0.214,0.196,0.320,0.297,0.278,0.158,0.095,northwest,2.2,No
2019/02/01,07:40,0.214,0.196,0.319,0.298,0.278,0.159,0.096,north,2.5,No
2019/02/01,07:50,0.213,0.195,0.319,0.298,0.279,0.159,0.095,north,1.0,No
2019/02/01,08:00,0.214,0.196,0.319,0.298,0.278,0.157,0.095,north-northeast,1.3,No
2019/02/01,08:10,0.213,0.195,0.319,0.298,0.278,0.158,0.095,east-northeast,0.7,No
2019/02/01,08:20,0.213,0.195,0.319,0.296,0.278,0.159,0.095,north,2.3,No
2019/02/01,08:30,0.215,0.196,0.318,0.295,0.278,0.159,0.096,north,1.6,No
2019/02/01,08:40,0.214,0.195,0.319,0.297,0.277,0.159,0.095,north-northwest,2.3,No
2019/02/01,08:50,0.215,0.196,0.320,0.296,0.277,0.158,0.096,-,CALM,No
2019/02/01,09:00,0.212,0.196,0.319,0.296,0.279,0.158,0.096,north-northwest,0.8,No
2019/02/01,09:10,0.212,0.196,0.319,0.297,0.278,0.158,0.095,north,1.6,No
2019/02/01,09:20,0.214,0.195,0.317,0.299,0.278,0.158,0.096,northwest,3.4,No
2019/02/01,09:30,0.214,0.195,0.320,0.297,0.277,0.159,0.095,west-northwest,5.7,No
2019/02/01,09:40,0.211,0.195,0.317,0.297,0.278,0.159,0.095,west-northwest,4.7,No
2019/02/01,09:50,0.213,0.194,0.319,0.297,0.277,0.158,0.096,west,6.2,No
2019/02/01,10:00,0.212,0.196,0.320,0.297,0.277,0.158,0.095,west-northwest,6.5,No
2019/02/01,10:10,0.212,0.194,0.318,0.297,0.278,0.158,0.096,west-northwest,8.2,No
2019/02/01,10:20,0.212,0.196,0.320,0.296,0.278,0.159,0.096,west-northwest,7.0,No
2019/02/01,10:30,0.212,0.195,0.319,0.297,0.278,0.159,0.096,west-northwest,10.9,No
2019/02/01,10:40,0.212,0.195,0.320,0.299,0.279,0.158,0.095,west-northwest,8.5,No
2019/02/01,10:50,0.210,0.196,0.320,0.297,0.279,0.159,0.096,west,8.1,No
2019/02/01,11:00,0.212,0.195,0.319,0.297,0.278,0.158,0.095,west-northwest,7.1,No
2019/02/01,11:10,0.211,0.194,0.321,0.297,0.276,0.159,0.095,west-northwest,8.1,No
2019/02/01,11:20,0.211,0.195,0.320,0.297,0.280,0.158,0.095,northwest,9.2,No
2019/02/01,11:30,0.213,0.195,0.320,0.298,0.278,0.158,0.096,west-northwest,7.3,No
2019/02/01,11:40,0.212,0.195,0.319,0.295,0.279,0.158,0.095,west-northwest,9.2,No
2019/02/01,11:50,0.212,0.196,0.320,0.297,0.279,0.158,0.095,west-northwest,9.2,No
2019/02/01,12:00,0.214,0.195,0.320,0.298,0.280,0.158,0.095,west-northwest,7.8,No
2019/02/01,12:10,0.213,0.196,0.319,0.297,0.279,0.160,0.095,west-northwest,7.7,No
2019/02/01,12:20,0.212,0.195,0.321,0.297,0.280,0.158,0.095,west-northwest,6.5,No
2019/02/01,12:30,0.214,0.196,0.319,0.296,0.278,0.159,0.095,west-northwest,9.8,No
2019/02/01,12:40,0.212,0.194,0.317,0.297,0.280,0.158,0.095,west-northwest,9.2,No
2019/02/01,12:50,0.213,0.196,0.319,0.298,0.278,0.158,0.095,west,12.3,No
2019/02/01,13:00,0.214,0.195,0.318,0.296,0.278,0.159,0.095,west-northwest,13.4,No
2019/02/01,13:10,0.213,0.196,0.318,0.298,0.280,0.159,0.095,west-northwest,12.5,No
2019/02/01,13:20,0.212,0.196,0.319,0.297,0.279,0.159,0.096,west-northwest,12.0,No
2019/02/01,13:30,0.212,0.195,0.320,0.297,0.278,0.159,0.094,west-northwest,14.7,No
2019/02/01,13:40,0.212,0.195,0.319,0.299,0.280,0.159,0.095,west-northwest,15.6,No
2019/02/01,13:50,0.212,0.196,0.318,0.297,0.279,0.158,0.095,west-northwest,14.3,No
2019/02/01,14:00,0.213,0.195,0.319,0.296,0.280,0.160,0.095,west-northwest,13.7,No
2019/02/01,14:10,0.212,0.196,0.321,0.299,0.279,0.159,0.096,west-northwest,13.1,No
2019/02/01,14:20,0.212,0.196,0.320,0.297,0.279,0.158,0.096,west-northwest,9.5,No
2019/02/01,14:30,0.214,0.197,0.320,0.298,0.279,0.158,0.096,west-northwest,12.3,No
2019/02/01,14:40,0.214,0.197,0.320,0.299,0.279,0.158,0.096,west-northwest,10.7,No
2019/02/01,14:50,0.214,0.196,0.321,0.299,0.282,0.159,0.095,west-northwest,11.4,No
2019/02/01,15:00,0.213,0.196,0.323,0.298,0.281,0.158,0.096,west,11.4,No
2019/02/01,15:10,0.214,0.196,0.321,0.299,0.280,0.158,0.095,west-northwest,8.7,No
2019/02/01,15:20,0.214,0.196,0.321,0.299,0.280,0.159,0.095,west-northwest,9.8,No
2019/02/01,15:30,0.213,0.196,0.322,0.297,0.280,0.159,0.095,west-northwest,9.0,No
2019/02/01,15:40,0.215,0.196,0.320,0.299,0.280,0.157,0.095,west-northwest,9.2,No
2019/02/01,15:50,0.213,0.196,0.321,0.297,0.281,0.159,0.096,west-northwest,9.5,No
2019/02/01,16:00,0.213,0.196,0.320,0.299,0.279,0.158,0.095,west,6.2,No
2019/02/01,16:10,0.213,0.196,0.320,0.299,0.280,0.158,0.095,west-northwest,5.9,No
2019/02/01,16:20,0.213,0.196,0.320,0.299,0.280,0.158,0.096,north-northwest,1.7,No
2019/02/01,16:30,0.214,0.196,0.320,0.297,0.280,0.158,0.096,north-northwest,2.5,No
2019/02/01,16:40,0.214,0.196,0.320,0.299,0.279,0.159,0.095,northwest,3.3,No
2019/02/01,16:50,0.214,0.196,0.321,0.298,0.279,0.159,0.094,west-northwest,3.3,No
2019/02/01,17:00,0.213,0.195,0.321,0.298,0.280,0.159,0.096,west,4.7,No
2019/02/01,17:10,0.212,0.197,0.319,0.298,0.278,0.159,0.095,west-northwest,3.0,No
2019/02/01,17:20,0.213,0.195,0.320,0.298,0.279,0.159,0.095,west-northwest,3.4,No
2019/02/01,17:30,0.213,0.196,0.319,0.298,0.279,0.158,0.096,west-northwest,6.0,No
2019/02/01,17:40,0.212,0.195,0.319,0.298,0.278,0.159,0.096,west,8.1,No
2019/02/01,17:50,0.213,0.196,0.321,0.298,0.278,0.160,0.095,west-northwest,7.0,No
2019/02/01,18:00,0.214,0.195,0.321,0.299,0.278,0.159,0.095,west,8.4,No
2019/02/01,18:10,0.214,0.195,0.320,0.298,0.279,0.158,0.095,west-northwest,5.8,No
2019/02/01,18:20,0.213,0.195,0.320,0.299,0.280,0.159,0.096,west-northwest,8.4,No
2019/02/01,18:30,0.213,0.196,0.320,0.297,0.279,0.159,0.096,west-northwest,6.3,No
2019/02/01,18:40,0.213,0.196,0.321,0.299,0.278,0.159,0.095,west,6.4,No
2019/02/01,18:50,0.213,0.196,0.320,0.299,0.280,0.160,0.096,west,5.7,No
2019/02/01,19:00,0.214,0.195,0.320,0.298,0.278,0.158,0.095,west,7.0,No
2019/02/01,19:10,0.213,0.195,0.320,0.299,0.277,0.159,0.097,west-northwest,7.3,No
2019/02/01,19:20,0.214,0.196,0.320,0.299,0.277,0.159,0.096,west-northwest,4.8,No
2019/02/01,19:30,0.213,0.195,0.320,0.298,0.279,0.158,0.095,west-northwest,6.1,No
2019/02/01,19:40,0.213,0.196,0.320,0.297,0.278,0.159,0.095,west-northwest,3.2,No
2019/02/01,19:50,0.213,0.197,0.321,0.298,0.279,0.158,0.096,west,2.4,No
2019/02/01,20:00,0.213,0.197,0.318,0.299,0.280,0.159,0.095,west,4.5,No
2019/02/01,20:10,0.214,0.197,0.320,0.298,0.280,0.159,0.096,west,4.8,No
2019/02/01,20:20,0.213,0.197,0.320,0.298,0.278,0.159,0.095,west,4.2,No
2019/02/01,20:30,0.213,0.197,0.319,0.298,0.278,0.159,0.095,west,4.6,No
2019/02/01,20:40,0.213,0.196,0.320,0.299,0.279,0.158,0.096,west,3.9,No
2019/02/01,20:50,0.213,0.196,0.320,0.298,0.279,0.159,0.095,west,4.5,No
2019/02/01,21:00,0.213,0.196,0.321,0.299,0.277,0.158,0.096,west,5.5,No
2019/02/01,21:10,0.213,0.197,0.319,0.298,0.277,0.157,0.095,west,6.2,No
2019/02/01,21:20,0.214,0.196,0.320,0.299,0.278,0.158,0.096,west,6.5,No
2019/02/01,21:30,0.214,0.197,0.320,0.299,0.279,0.158,0.096,west-northwest,6.1,No
2019/02/01,21:40,0.214,0.196,0.320,0.299,0.278,0.159,0.095,west-northwest,4.5,No
2019/02/01,21:50,0.212,0.196,0.321,0.298,0.278,0.159,0.095,west,3.6,No
2019/02/01,22:00,0.214,0.195,0.319,0.298,0.278,0.158,0.096,west-northwest,4.1,No
2019/02/01,22:10,0.213,0.195,0.320,0.299,0.278,0.160,0.096,west,5.1,No
2019/02/01,22:20,0.214,0.196,0.320,0.297,0.277,0.158,0.095,west,6.0,No
2019/02/01,22:30,0.214,0.196,0.320,0.298,0.278,0.159,0.096,west,7.0,No
2019/02/01,22:40,0.213,0.197,0.320,0.298,0.279,0.159,0.096,west,7.1,No
2019/02/01,22:50,0.214,0.196,0.321,0.299,0.279,0.159,0.095,west,8.1,No
2019/02/01,23:00,0.212,0.196,0.321,0.299,0.278,0.160,0.096,west,7.3,No
2019/02/01,23:10,0.214,0.197,0.320,0.299,0.279,0.159,0.096,west,7.5,No
2019/02/01,23:20,0.213,0.196,0.320,0.298,0.279,0.160,0.096,west,7.5,No
2019/02/01,23:30,0.213,0.196,0.321,0.299,0.280,0.158,0.096,west,7.8,No
2019/02/01,23:40,0.213,0.196,0.321,0.298,0.280,0.159,0.096,west,8.1,No
2019/02/01,23:50,0.213,0.196,0.321,0.299,0.278,0.158,0.096,west,7.0,No
